SP9INZ-13 Weather Reports


time (UTC)temp
F
wind
direction
speed
knots
gust
knots
rain 1hr
in
rain 24hr
in
rain mn
in
humidity
%
barometer
mb
20260508032917 53 0.0 0.0 0.00 0.00 0.00 37 1022.1
20260508031319 53 0.0 0.0 0.00 0.00 0.00 33 1021.9
20260508025721 54 0.0 0.0 0.00 0.00 0.00 25 1022.8
20260508024124 54 0.0 0.0 0.00 0.00 0.00 28 1023.4
20260508022525 54 0.0 0.0 0.00 0.00 0.00 28 1023.4
20260508020927 54 0.0 0.0 0.00 0.00 0.00 28 1023.4
20260508015330 54 0.0 0.0 0.00 0.00 0.00 28 1023.4
20260508013732 54 0.0 0.0 0.00 0.00 0.00 31 1024.1
20260508012134 54 0.0 0.0 0.00 0.00 0.00 29 1025.3
20260508010536 54 0.0 0.0 0.00 0.00 0.00 38 1024.1
20260508004937 54 0.0 0.0 0.00 0.00 0.00 38 1022.7
20260508003339 56 0.0 0.0 0.00 0.00 0.00 41 1019.8
20260508001741 57 0.0 0.0 0.00 0.00 0.00 57 1018.6
20260508000143 62 0.0 0.0 0.00 0.00 0.00 71 1022.1
20260507234545 63 0.0 0.0 0.00 0.00 0.00 73 1022.7
20260507232948 63 0.0 0.0 0.00 0.00 0.00 73 1022.9
20260507231349 63 0.0 0.0 0.00 0.00 0.00 73 1023.4
20260507225752 63 0.0 0.0 0.00 0.00 0.00 69 1024.4
20260507224154 62 0.0 0.0 0.00 0.00 0.00 63 1024.1
20260507222555 59 0.0 0.0 0.00 0.00 0.00 55 1022.6
20260507220957 59 0.0 0.0 0.00 0.00 0.00 53 1021.6
20260507215400 59 0.0 0.0 0.00 0.00 0.00 49 1020.3
20260507213801 59 0.0 0.0 0.00 0.00 0.00 52 1020.7
20260507212203 57 0.0 0.0 0.00 0.00 0.00 49 1018.8
20260507210604 58 0.0 0.0 0.00 0.00 0.00 50 1018.3
20260507205007 58 0.0 0.0 0.00 0.00 0.00 48 1017.2
20260507203409 60 0.0 0.0 0.00 0.00 0.00 52 1017.4
20260507201811 59 0.0 0.0 0.00 0.00 0.00 53 1017.7
20260507200214 59 0.0 0.0 0.00 0.00 0.00 49 1016.3
20260507194615 57 0.0 0.0 0.00 0.00 0.00 45 1013.9
20260507193016 57 0.0 0.0 0.00 0.00 0.00 43 1012.7
20260507191418 58 0.0 0.0 0.00 0.00 0.00 40 1010.8
20260507185821 57 0.0 0.0 0.00 0.00 0.00 37 1009.9
20260507184222 56 0.0 0.0 0.00 0.00 0.00 47 1010.9
20260507182625 58 0.0 0.0 0.00 0.00 0.00 73 1012.1
20260507181027 63 0.0 0.0 0.00 0.00 0.00 75 1011.5
20260507175429 63 0.0 0.0 0.00 0.00 0.00 77 1011.2
20260507173831 62 0.0 0.0 0.00 0.00 0.00 78 1011.2
20260507172233 63 0.0 0.0 0.00 0.00 0.00 77 1010.1
20260507170635 63 0.0 0.0 0.00 0.00 0.00 74 1010.5
20260507165037 66 0.0 0.0 0.00 0.00 0.00 67 1010.5
20260507163439 67 0.0 0.0 0.00 0.00 0.00 66 1010.1
20260507161841 68 0.0 0.0 0.00 0.00 0.00 66 1010.1
20260507160245 68 0.0 0.0 0.00 0.00 0.00 63 1010.3
20260507154645 69 0.0 0.0 0.00 0.00 0.00 64 1010.3
20260507153048 70 0.0 0.0 0.00 0.00 0.00 63 1010.2
20260507151450 70 0.0 0.0 0.00 0.00 0.00 63 1010.0
20260507145851 69 0.0 0.0 0.00 0.00 0.00 63 1010.2
20260507144253 71 0.0 0.0 0.00 0.00 0.00 59 1010.8
20260507142655 69 0.0 0.0 0.00 0.00 0.00 58 1011.4
20260507141057 71 0.0 0.0 0.00 0.00 0.00 56 1011.1
20260507135459 70 0.0 0.0 0.00 0.00 0.00 58 1011.1
20260507133901 69 0.0 0.0 0.00 0.00 0.00 57 1011.9
20260507132307 69 0.0 0.0 0.00 0.00 0.00 58 1011.6
20260507130705 69 0.0 0.0 0.00 0.00 0.00 58 1011.9
20260507125107 73 0.0 0.0 0.00 0.00 0.00 54 1011.3
20260507123509 71 0.0 0.0 0.00 0.00 0.00 56 1011.9
20260507121911 70 0.0 0.0 0.00 0.00 0.00 57 1011.8
20260507120313 71 0.0 0.0 0.00 0.00 0.00 54 1011.7
20260507114716 70 0.0 0.0 0.00 0.00 0.00 56 1011.9
20260507113117 74 0.0 0.0 0.00 0.00 0.00 53 1011.3
20260507111519 70 0.0 0.0 0.00 0.00 0.00 59 1011.8
20260507105921 70 0.0 0.0 0.00 0.00 0.00 60 1011.7
20260507104323 70 0.0 0.0 0.00 0.00 0.00 59 1011.3
20260507102725 68 0.0 0.0 0.00 0.00 0.00 63 1010.9
20260507101127 68 0.0 0.0 0.00 0.00 0.00 62 1010.6
20260507095529 67 0.0 0.0 0.00 0.00 0.00 66 1010.6
20260507093931 67 0.0 0.0 0.00 0.00 0.00 66 1009.7
20260507092333 66 0.0 0.0 0.00 0.00 0.00 68 1009.7
20260507090736 66 0.0 0.0 0.00 0.00 0.00 70 1009.0
20260507085137 66 0.0 0.0 0.00 0.00 0.00 69 1008.7
20260507083539 66 0.0 0.0 0.00 0.00 0.00 70 1008.4
20260507081941 66 0.0 0.0 0.00 0.00 0.00 72 1007.9
20260507080343 65 0.0 0.0 0.00 0.00 0.00 73 1008.0
20260507074745 64 0.0 0.0 0.00 0.00 0.00 74 1007.8
20260507073148 63 0.0 0.0 0.00 0.00 0.00 75 1007.5
20260507071549 64 0.0 0.0 0.00 0.00 0.00 75 1006.9
20260507065952 64 0.0 0.0 0.00 0.00 0.00 74 1006.9
20260507064353 63 0.0 0.0 0.00 0.00 0.00 76 1007.0
20260507062755 62 0.0 0.0 0.00 0.00 0.00 76 1007.2
20260507061157 62 0.0 0.0 0.00 0.00 0.00 77 1006.9
20260507055559 62 0.0 0.0 0.00 0.00 0.00 76 1006.6
20260507054001 62 0.0 0.0 0.00 0.00 0.00 74 1006.7
20260507052403 63 0.0 0.0 0.00 0.00 0.00 73 1006.8
20260507050805 64 0.0 0.0 0.00 0.00 0.00 69 1006.8
20260507045208 64 0.0 0.0 0.00 0.00 0.00 69 1006.8
20260507043610 66 0.0 0.0 0.00 0.00 0.00 66 1006.6
20260507042011 64 0.0 0.0 0.00 0.00 0.00 68 1006.6
20260507040519 65 0.0 0.0 0.00 0.00 0.00 66 1006.5
20260507040414 65 0.0 0.0 0.00 0.00 0.00 66 1006.5
20260507034823 65 0.0 0.0 0.00 0.00 0.00 66 1006.7
20260507034815 65 0.0 0.0 0.00 0.00 0.00 66 1006.7